Location: Newark
(8.3667°S, 17.0167°E)
Time: 00:57:22
(UTC+00:00)

ISS - Visible Passes

Search period start: 14 November 2019 00:00
Search period end: 24 November 2019 00:00
Orbit: 412 x 421 km, 51.6° (Epoch: 14 November)

Date Brightness Start Highest point End Pass type
(mag) Time Alt. Az. Time Alt. Az. Time Alt. Az.
14 Nov -3.3 17:17:34 10° SW 17:20:52 61° NW 17:24:09 10° NNE visible
16 Nov -0.9 17:19:13 10° W 17:20:40 12° NW 17:22:07 10° NNW visible
19 Nov -0.9 03:21:47 10° NNE 03:23:28 13° NE 03:25:07 10° E visible
21 Nov -3.5 03:21:10 22° NNW 03:23:09 65° NE 03:26:30 10° SE visible
22 Nov -1.7 02:35:17 25° ENE 02:35:17 25° ENE 02:37:38 10° ESE visible
23 Nov -2.3 03:22:14 21° WSW 03:22:54 23° SW 03:25:38 10° S visible
